| time (UTC) | temp F | wind direction | speed MPH | gust MPH | rain 1hr in | rain 24hr in | rain mn in | humidity % | barometer mb |
| 20260831231438 | 79 | 180 | 0.0 | 1.0 | 0.00 | 0.35 | 0.35 | 91 | 1012.5 |
| 20260831230934 | 79 | 168 | 1.0 | 1.0 | 0.00 | 0.35 | 0.35 | 91 | 1012.7 |
| 20260831230429 | 80 | 32 | 0.0 | 0.0 | 0.02 | 0.35 | 0.35 | 91 | 1012.5 |
| 20260831225928 | 80 | 62 | 0.0 | 0.0 | 0.00 | 0.34 | 0.34 | 91 | 1012.4 |
| 20260831225425 | 80 | 142 | 0.0 | 0.0 | 0.00 | 0.34 | 0.34 | 91 | 1012.3 |
| 20260831224919 | 80 | 117 | 0.0 | 1.0 | 0.00 | 0.34 | 0.34 | 91 | 1012.3 |
| 20260831224413 | 80 | 75 | 0.0 | 1.0 | 0.02 | 0.34 | 0.34 | 91 | 1012.4 |
| 20260831223908 | 80 | 144 | 0.0 | 1.0 | 0.02 | 0.34 | 0.34 | 92 | 1011.9 |
| 20260831223404 | 80 | 73 | 0.0 | 0.0 | 0.00 | 0.34 | 0.34 | 92 | 1012.0 |
| 20260831222900 | 80 | 140 | 0.0 | 2.0 | 0.02 | 0.34 | 0.34 | 92 | 1012.2 |
| 20260831222355 | 80 | 205 | 0.0 | 0.0 | 0.02 | 0.34 | 0.34 | 92 | 1012.2 |
| 20260831221850 | 80 | 123 | 0.0 | 0.0 | 0.00 | 0.34 | 0.34 | 93 | 1012.0 |
| 20260831221346 | 80 | 182 | 0.0 | 0.0 | 0.02 | 0.34 | 0.34 | 93 | 1012.2 |
| 20260831220841 | 80 | 195 | 0.0 | 1.0 | 0.02 | 0.34 | 0.34 | 95 | 1012.2 |
| 20260831220337 | 79 | 195 | 0.0 | 0.0 | 0.02 | 0.33 | 0.33 | 95 | 1011.9 |
| 20260831215832 | 79 | 25 | 0.0 | 0.0 | 0.02 | 0.33 | 0.33 | 96 | 1012.0 |
| 20260831215327 | 78 | 104 | 0.0 | 0.0 | 0.02 | 0.33 | 0.33 | 96 | 1011.8 |
| 20260831214824 | 78 | 147 | 0.0 | 1.0 | 0.05 | 0.33 | 0.33 | 95 | 1012.0 |
| 20260831214321 | 78 | 166 | 1.0 | 2.0 | 0.05 | 0.32 | 0.32 | 95 | 1012.0 |
| 20260831213816 | 78 | 166 | 2.0 | 2.0 | 0.05 | 0.32 | 0.32 | 94 | 1011.9 |
| 20260831213313 | 78 | 122 | 0.0 | 1.0 | 0.05 | 0.32 | 0.32 | 94 | 1011.9 |
| 20260831212808 | 78 | 131 | 0.0 | 1.0 | 0.05 | 0.31 | 0.31 | 93 | 1012.0 |
| 20260831212306 | 78 | 60 | 1.0 | 1.0 | 0.05 | 0.31 | 0.31 | 92 | 1012.0 |
| 20260831211803 | 79 | 133 | 0.0 | 2.0 | 0.02 | 0.30 | 0.30 | 90 | 1011.9 |
| 20260831211258 | 80 | 186 | 0.0 | 1.0 | 0.00 | 0.30 | 0.30 | 87 | 1012.0 |
| 20260831210758 | 80 | 108 | 0.0 | 1.0 | 0.00 | 0.30 | 0.30 | 87 | 1012.0 |
| 20260831210254 | 80 | 37 | 0.0 | 0.0 | 0.00 | 0.30 | 0.30 | 85 | 1012.3 |
| 20260831205753 | 81 | 133 | 0.0 | 2.0 | 0.02 | 0.30 | 0.30 | 85 | 1011.8 |
| 20260831205250 | 81 | 220 | 0.0 | 2.0 | 0.02 | 0.30 | 0.30 | 84 | 1011.3 |
| 20260831204749 | 81 | 89 | 0.0 | 1.0 | 0.00 | 0.29 | 0.29 | 86 | 1011.4 |
| 20260831204249 | 80 | 281 | 0.0 | 1.0 | 0.00 | 0.29 | 0.29 | 89 | 1011.4 |
| 20260831203748 | 79 | 79 | 0.0 | 2.0 | 0.02 | 0.29 | 0.29 | 90 | 1011.4 |
| 20260831203243 | 78 | 119 | 0.0 | 1.0 | 0.02 | 0.29 | 0.29 | 92 | 1011.7 |
| 20260831202741 | 78 | 69 | 1.0 | 2.0 | 0.00 | 0.29 | 0.29 | 92 | 1011.9 |
| 20260831202237 | 77 | 87 | 1.0 | 1.0 | 0.00 | 0.29 | 0.29 | 90 | 1012.8 |
| 20260831201736 | 77 | 108 | 1.0 | 2.0 | 0.00 | 0.29 | 0.29 | 89 | 1013.1 |
| 20260831201236 | 77 | 55 | 0.0 | 0.0 | 0.02 | 0.29 | 0.29 | 89 | 1013.3 |
| 20260831200731 | 77 | 58 | 0.0 | 1.0 | 0.02 | 0.29 | 0.29 | 89 | 1012.8 |
| 20260831200226 | 77 | 89 | 0.0 | 1.0 | 0.00 | 0.29 | 0.29 | 88 | 1013.3 |
| 20260831195721 | 77 | 33 | 0.0 | 1.0 | 0.00 | 0.29 | 0.29 | 88 | 1013.2 |
| 20260831195217 | 77 | 34 | 0.0 | 0.0 | 0.00 | 0.29 | 0.29 | 87 | 1012.8 |
| 20260831194711 | 77 | 44 | 0.0 | 0.0 | 0.02 | 0.29 | 0.29 | 87 | 1012.7 |
| 20260831194207 | 77 | 142 | 0.0 | 1.0 | 0.02 | 0.29 | 0.29 | 88 | 1012.0 |
| 20260831193701 | 77 | 50 | 0.0 | 0.0 | 0.00 | 0.28 | 0.28 | 87 | 1012.4 |
| 20260831193157 | 78 | 28 | 0.0 | 1.0 | 0.02 | 0.28 | 0.28 | 87 | 1012.5 |
| 20260831192652 | 78 | 117 | 1.0 | 2.0 | 0.02 | 0.28 | 0.28 | 82 | 1012.4 |
| 20260831192147 | 79 | 346 | 2.0 | 2.0 | 0.00 | 0.28 | 0.28 | 78 | 1012.4 |
| 20260831191643 | 80 | 315 | 0.0 | 1.0 | 0.00 | 0.28 | 0.28 | 78 | 1012.5 |
| 20260831191138 | 80 | 149 | 0.0 | 2.0 | 0.00 | 0.28 | 0.28 | 76 | 1012.6 |
| 20260831190633 | 80 | 165 | 1.0 | 1.0 | 0.00 | 0.28 | 0.28 | 77 | 1012.7 |
| 20260831190132 | 80 | 50 | 0.0 | 1.0 | 0.00 | 0.28 | 0.28 | 76 | 1012.7 |
| 20260831185628 | 80 | 117 | 0.0 | 1.0 | 0.00 | 0.28 | 0.28 | 74 | 1012.6 |
| 20260831185124 | 80 | 242 | 0.0 | 2.0 | 0.00 | 0.28 | 0.28 | 73 | 1012.8 |
| 20260831184618 | 81 | 146 | 0.0 | 0.0 | 0.00 | 0.28 | 0.28 | 70 | 1012.8 |
| 20260831184114 | 81 | 255 | 0.0 | 0.0 | 0.00 | 0.28 | 0.28 | 70 | 1012.8 |
| 20260831183613 | 82 | 315 | 0.0 | 1.0 | 0.00 | 0.28 | 0.28 | 72 | 1012.5 |
| 20260831183112 | 82 | 249 | 0.0 | 1.0 | 0.00 | 0.28 | 0.28 | 68 | 1012.3 |
| 20260831182611 | 83 | 230 | 0.0 | 1.0 | 0.00 | 0.28 | 0.28 | 67 | 1012.6 |
| 20260831182108 | 83 | 217 | 2.0 | 2.0 | 0.00 | 0.28 | 0.28 | 65 | 1012.7 |
| 20260831181607 | 84 | 233 | 0.0 | 2.0 | 0.00 | 0.28 | 0.28 | 65 | 1012.4 |
| 20260831181102 | 85 | 179 | 0.0 | 0.0 | 0.00 | 0.28 | 0.28 | 67 | 1012.4 |
| 20260831180556 | 85 | 128 | 0.0 | 2.0 | 0.00 | 0.28 | 0.28 | 67 | 1012.3 |
| 20260831180052 | 84 | 176 | 2.0 | 3.0 | 0.00 | 0.28 | 0.28 | 68 | 1012.7 |
| 20260831175547 | 84 | 276 | 1.0 | 2.0 | 0.00 | 0.28 | 0.28 | 68 | 1012.5 |
| 20260831175044 | 83 | 214 | 2.0 | 2.0 | 0.00 | 0.28 | 0.28 | 70 | 1012.5 |
| 20260831174544 | 83 | 267 | 1.0 | 1.0 | 0.00 | 0.28 | 0.28 | 68 | 1012.6 |
| 20260831174044 | 83 | 246 | 1.0 | 2.0 | 0.00 | 0.28 | 0.28 | 64 | 1012.8 |
| 20260831173542 | 83 | 315 | 0.0 | 2.0 | 0.00 | 0.28 | 0.28 | 66 | 1012.5 |
| 20260831173039 | 83 | 257 | 1.0 | 2.0 | 0.00 | 0.28 | 0.28 | 67 | 1012.7 |
| 20260831172539 | 83 | 224 | 2.0 | 2.0 | 0.00 | 0.28 | 0.28 | 70 | 1012.9 |
| 20260831172034 | 83 | 230 | 0.0 | 2.0 | 0.00 | 0.28 | 0.28 | 69 | 1012.9 |
| 20260831171530 | 83 | 283 | 2.0 | 2.0 | 0.00 | 0.28 | 0.28 | 71 | 1012.9 |
| 20260831171027 | 82 | 217 | 0.0 | 2.0 | 0.00 | 0.28 | 0.28 | 67 | 1013.1 |
| 20260831170523 | 82 | 246 | 1.0 | 2.0 | 0.00 | 0.28 | 0.28 | 71 | 1013.3 |
| 20260831170020 | 81 | 199 | 0.0 | 2.0 | 0.00 | 0.28 | 0.28 | 74 | 1013.4 |
| 20260831165520 | 81 | 247 | 1.0 | 1.0 | 0.00 | 0.28 | 0.28 | 70 | 1013.4 |
| 20260831165017 | 81 | 207 | 0.0 | 2.0 | 0.02 | 0.28 | 0.28 | 70 | 1013.3 |
| 20260831164513 | 81 | 145 | 0.0 | 2.0 | 0.02 | 0.28 | 0.28 | 74 | 1013.6 |
| 20260831164008 | 80 | 246 | 0.0 | 2.0 | 0.00 | 0.28 | 0.28 | 72 | 1013.4 |
| 20260831163503 | 80 | 279 | 0.0 | 1.0 | 0.00 | 0.28 | 0.28 | 71 | 1013.3 |
| 20260831163003 | 80 | 253 | 0.0 | 2.0 | 0.02 | 0.28 | 0.28 | 78 | 1013.5 |
| 20260831162457 | 79 | 196 | 0.0 | 2.0 | 0.02 | 0.28 | 0.28 | 75 | 1013.6 |
| 20260831161955 | 79 | 205 | 0.0 | 2.0 | 0.00 | 0.27 | 0.27 | 77 | 1013.5 |
| 20260831161452 | 78 | 248 | 0.0 | 2.0 | 0.00 | 0.27 | 0.27 | 78 | 1013.5 |
| 20260831160948 | 78 | 298 | 1.0 | 2.0 | 0.02 | 0.27 | 0.27 | 77 | 1013.4 |
| 20260831160447 | 77 | 124 | 0.0 | 3.0 | 0.00 | 0.27 | 0.27 | 81 | 1013.3 |
| 20260831155947 | 76 | 253 | 0.0 | 3.0 | 0.00 | 0.27 | 0.27 | 80 | 1013.5 |
| 20260831155442 | 75 | 214 | 2.0 | 2.0 | 0.02 | 0.27 | 0.27 | 84 | 1013.6 |
| 20260831154938 | 76 | 136 | 0.0 | 2.0 | 0.00 | 0.26 | 0.26 | 82 | 1013.5 |
| 20260831154434 | 75 | 167 | 0.0 | 2.0 | 0.02 | 0.26 | 0.26 | 84 | 1013.5 |
| 20260831153933 | 74 | 164 | 0.0 | 2.0 | 0.02 | 0.26 | 0.26 | 86 | 1013.7 |
| 20260831153428 | 73 | 32 | 0.0 | 1.0 | 0.00 | 0.26 | 0.26 | 89 | 1013.4 |
| 20260831152925 | 73 | 199 | 0.0 | 1.0 | 0.00 | 0.26 | 0.26 | 91 | 1013.6 |
| 20260831152420 | 72 | 269 | 0.0 | 1.0 | 0.02 | 0.26 | 0.26 | 91 | 1013.8 |
| 20260831151915 | 72 | 165 | 1.0 | 1.0 | 0.00 | 0.26 | 0.26 | 94 | 1013.7 |
| 20260831151414 | 71 | 89 | 0.0 | 1.0 | 0.00 | 0.26 | 0.26 | 94 | 1013.6 |
| 20260831150909 | 71 | 173 | 0.0 | 2.0 | 0.02 | 0.26 | 0.26 | 95 | 1013.9 |
| 20260831150405 | 71 | 180 | 0.0 | 2.0 | 0.02 | 0.26 | 0.26 | 96 | 1013.8 |
| 20260831145904 | 71 | 130 | 0.0 | 1.0 | 0.02 | 0.25 | 0.25 | 96 | 1013.7 |
| 20260831145400 | 71 | 110 | 0.0 | 1.0 | 0.02 | 0.25 | 0.25 | 97 | 1013.8 |
| 20260831144856 | 71 | 15 | 0.0 | 1.0 | 0.00 | 0.25 | 0.25 | 97 | 1013.7 |
| 20260831144352 | 70 | 46 | 1.0 | 1.0 | 0.02 | 0.25 | 0.25 | 98 | 1013.6 |
| 20260831143847 | 70 | 218 | 0.0 | 0.0 | 0.00 | 0.24 | 0.24 | 98 | 1013.9 |
| 20260831143341 | 70 | 174 | 0.0 | 0.0 | 0.02 | 0.24 | 0.24 | 98 | 1013.8 |
| 20260831142837 | 70 | 50 | 0.0 | 2.0 | 0.00 | 0.24 | 0.24 | 98 | 1013.7 |
| 20260831142332 | 70 | 173 | 0.0 | 0.0 | 0.02 | 0.24 | 0.24 | 98 | 1013.5 |
| 20260831141826 | 69 | 45 | 0.0 | 1.0 | 0.02 | 0.24 | 0.24 | 98 | 1013.5 |
| 20260831141320 | 69 | 135 | 0.0 | 0.0 | 0.02 | 0.24 | 0.24 | 98 | 1013.6 |
| 20260831140815 | 69 | 322 | 0.0 | 1.0 | 0.02 | 0.23 | 0.23 | 98 | 1013.6 |
| 20260831140310 | 69 | 157 | 0.0 | 0.0 | 0.02 | 0.23 | 0.23 | 98 | 1013.7 |
| 20260831135807 | 69 | 50 | 0.0 | 0.0 | 0.02 | 0.23 | 0.23 | 98 | 1013.7 |
| 20260831135306 | 69 | 322 | 0.0 | 0.0 | 0.02 | 0.22 | 0.22 | 98 | 1013.7 |
| 20260831134759 | 69 | 209 | 0.0 | 0.0 | 0.05 | 0.22 | 0.22 | 98 | 1013.7 |
| 20260831134256 | 68 | 293 | 0.0 | 2.0 | 0.05 | 0.22 | 0.22 | 98 | 1013.7 |
| 20260831133755 | 68 | 184 | 0.0 | 2.0 | 0.05 | 0.22 | 0.22 | 98 | 1013.8 |
| 20260831133254 | 68 | 203 | 0.0 | 2.0 | 0.05 | 0.21 | 0.21 | 98 | 1013.9 |
| 20260831132749 | 68 | 145 | 0.0 | 1.0 | 0.05 | 0.21 | 0.21 | 98 | 1013.9 |
| 20260831132244 | 68 | 133 | 1.0 | 2.0 | 0.05 | 0.20 | 0.20 | 98 | 1014.0 |
| 20260831131743 | 69 | 205 | 0.0 | 0.0 | 0.05 | 0.20 | 0.20 | 98 | 1014.1 |
| 20260831131241 | 69 | 130 | 0.0 | 0.0 | 0.05 | 0.20 | 0.20 | 98 | 1013.9 |
| 20260831130735 | 69 | 173 | 0.0 | 2.0 | 0.05 | 0.19 | 0.19 | 98 | 1014.2 |
| 20260831130231 | 69 | 198 | 0.0 | 1.0 | 0.05 | 0.18 | 0.18 | 98 | 1014.3 |
| 20260831125729 | 69 | 48 | 0.0 | 2.0 | 0.05 | 0.18 | 0.18 | 98 | 1014.0 |
| 20260831125226 | 68 | 72 | 0.0 | 1.0 | 0.07 | 0.18 | 0.18 | 98 | 1014.4 |
| 20260831124726 | 68 | 37 | 0.0 | 1.0 | 0.07 | 0.17 | 0.17 | 98 | 1014.0 |
| 20260831124222 | 68 | 76 | 0.0 | 1.0 | 0.07 | 0.17 | 0.17 | 98 | 1013.9 |
| 20260831123717 | 69 | 89 | 0.0 | 2.0 | 0.02 | 0.16 | 0.16 | 98 | 1013.8 |
| 20260831123216 | 69 | 100 | 0.0 | 1.0 | 0.05 | 0.15 | 0.15 | 98 | 1013.9 |
| 20260831122715 | 69 | 0 | 0.0 | 0.0 | 0.07 | 0.15 | 0.15 | 97 | 1013.9 |
| 20260831122212 | 69 | 227 | 0.0 | 2.0 | 0.07 | 0.15 | 0.15 | 97 | 1013.9 |
| 20260831121710 | 69 | 214 | 0.0 | 2.0 | 0.07 | 0.14 | 0.14 | 97 | 1013.9 |
| 20260831121208 | 69 | 316 | 2.0 | 2.0 | 0.07 | 0.13 | 0.13 | 97 | 1013.8 |
| 20260831120702 | 68 | 93 | 2.0 | 2.0 | 0.07 | 0.13 | 0.13 | 97 | 1013.6 |
| 20260831120157 | 68 | 55 | 0.0 | 2.0 | 0.09 | 0.12 | 0.12 | 97 | 1013.5 |
| 20260831115653 | 69 | 69 | 0.0 | 2.0 | 0.09 | 0.11 | 0.11 | 96 | 1013.4 |
| 20260831115148 | 68 | 22 | 0.0 | 1.0 | 0.14 | 0.10 | 0.10 | 96 | 1013.8 |
| 20260831114647 | 68 | 81 | 2.0 | 3.0 | 0.14 | 0.09 | 0.09 | 96 | 1014.0 |
| 20260831114142 | 69 | 74 | 2.0 | 3.0 | 0.17 | 0.07 | 0.07 | 95 | 1013.6 |
| 20260831113642 | 69 | 29 | 2.0 | 2.0 | 0.14 | 0.06 | 0.06 | 94 | 1013.8 |
| 20260831113137 | 69 | 81 | 1.0 | 2.0 | 0.12 | 0.05 | 0.05 | 93 | 1013.8 |
| 20260831112636 | 70 | 17 | 2.0 | 3.0 | 0.07 | 0.03 | 0.03 | 91 | 1014.0 |
| 20260831112132 | 70 | 85 | 2.0 | 2.0 | 0.07 | 0.03 | 0.03 | 90 | 1013.7 |
| 20260831111627 | 71 | 47 | 2.0 | 3.0 | 0.07 | 0.02 | 0.02 | 87 | 1013.9 |
| 20260831111123 | 72 | 21 | 2.0 | 2.0 | 0.07 | 0.02 | 0.02 | 83 | 1014.0 |
| 20260831110619 | 72 | 81 | 2.0 | 4.0 | 0.02 | 0.01 | 0.01 | 81 | 1013.9 |
| 20260831110114 | 72 | 21 | 4.0 | 5.0 | 0.00 | 0.00 | 0.00 | 82 | 1014.3 |
| 20260831105613 | 72 | 23 | 2.0 | 4.0 | 0.00 | 0.00 | 0.00 | 84 | 1013.6 |
| 20260831105108 | 72 | 16 | 2.0 | 3.0 | 0.00 | 0.00 | 0.00 | 84 | 1013.3 |
| 20260831104603 | 72 | 35 | 0.0 | 2.0 | 0.00 | 0.00 | 0.00 | 82 | 1013.1 |
| 20260831104100 | 72 | 44 | 1.0 | 1.0 | 0.00 | 0.00 | 0.00 | 82 | 1012.9 |
| 20260831103555 | 72 | 77 | 0.0 | 0.0 | 0.00 | 0.00 | 0.00 | 82 | 1012.8 |
| 20260831103051 | 72 | 135 | 0.0 | 0.0 | 0.00 | 0.00 | 0.00 | 82 | 1012.7 |
| 20260831102550 | 72 | 135 | 0.0 | 0.0 | 0.00 | 0.00 | 0.00 | 82 | 1012.7 |
| 20260831102045 | 72 | 12 | 0.0 | 1.0 | 0.00 | 0.00 | 0.00 | 82 | 1012.8 |
| 20260831101540 | 72 | 37 | 0.0 | 1.0 | 0.00 | 0.00 | 0.00 | 82 | 1013.0 |
| 20260831101036 | 72 | 186 | 0.0 | 1.0 | 0.00 | 0.00 | 0.00 | 83 | 1012.9 |
| 20260831100532 | 71 | 199 | 0.0 | 1.0 | 0.00 | 0.00 | 0.00 | 83 | 1012.7 |
| 20260831100028 | 71 | 296 | 0.0 | 2.0 | 0.00 | 0.00 | 0.00 | 85 | 1012.7 |
| 20260831095526 | 71 | 193 | 0.0 | 0.0 | 0.00 | 0.00 | 0.00 | 86 | 1012.8 |
| 20260831095021 | 71 | 190 | 0.0 | 1.0 | 0.00 | 0.00 | 0.00 | 87 | 1012.7 |
| 20260831094517 | 70 | 164 | 0.0 | 1.0 | 0.00 | 0.00 | 0.00 | 88 | 1012.7 |
| 20260831094013 | 70 | 173 | 0.0 | 1.0 | 0.00 | 0.00 | 0.00 | 89 | 1012.7 |
| 20260831093513 | 70 | 157 | 0.0 | 1.0 | 0.00 | 0.00 | 0.00 | 89 | 1012.8 |
| 20260831093010 | 70 | 164 | 0.0 | 0.0 | 0.00 | 0.00 | 0.00 | 90 | 1012.7 |
| 20260831092505 | 70 | 56 | 0.0 | 1.0 | 0.00 | 0.00 | 0.00 | 90 | 1012.8 |
| 20260831092000 | 70 | 36 | 0.0 | 1.0 | 0.00 | 0.00 | 0.00 | 91 | 1012.7 |
| 20260831091455 | 70 | 38 | 0.0 | 2.0 | 0.00 | 0.00 | 0.00 | 91 | 1012.8 |
| 20260831090950 | 70 | 50 | 0.0 | 1.0 | 0.00 | 0.00 | 0.00 | 91 | 1012.8 |
| 20260831090446 | 70 | 75 | 0.0 | 1.0 | 0.00 | 0.00 | 0.00 | 92 | 1012.6 |
| 20260831085942 | 70 | 129 | 0.0 | 1.0 | 0.00 | 0.00 | 0.00 | 92 | 1012.8 |
| 20260831085437 | 70 | 130 | 0.0 | 1.0 | 0.00 | 0.00 | 0.00 | 93 | 1012.9 |
| 20260831084936 | 70 | 124 | 0.0 | 0.0 | 0.00 | 0.00 | 0.00 | 93 | 1012.7 |
| 20260831084433 | 69 | 63 | 0.0 | 0.0 | 0.00 | 0.00 | 0.00 | 94 | 1012.9 |
| 20260831083930 | 69 | 37 | 0.0 | 1.0 | 0.00 | 0.00 | 0.00 | 94 | 1012.9 |
| 20260831083424 | 69 | 89 | 0.0 | 1.0 | 0.00 | 0.00 | 0.00 | 95 | 1013.0 |
| 20260831082923 | 69 | 60 | 0.0 | 1.0 | 0.00 | 0.00 | 0.00 | 96 | 1013.0 |
| 20260831082423 | 69 | 57 | 0.0 | 1.0 | 0.00 | 0.00 | 0.00 | 97 | 1012.8 |
| 20260831081919 | 69 | 32 | 0.0 | 0.0 | 0.00 | 0.00 | 0.00 | 97 | 1013.2 |
| 20260831081415 | 69 | 37 | 0.0 | 1.0 | 0.00 | 0.00 | 0.00 | 97 | 1013.1 |
| 20260831080910 | 69 | 55 | 0.0 | 1.0 | 0.00 | 0.00 | 0.00 | 97 | 1012.9 |
| 20260831080405 | 69 | 29 | 0.0 | 0.0 | 0.00 | 0.00 | 0.00 | 98 | 1013.0 |
| 20260831075901 | 69 | 44 | 0.0 | 0.0 | 0.00 | 0.00 | 0.00 | 98 | 1013.2 |
| 20260831075355 | 70 | 37 | 0.0 | 1.0 | 0.00 | 0.00 | 0.00 | 98 | 1013.0 |
| 20260831074851 | 70 | 32 | 0.0 | 1.0 | 0.00 | 0.00 | 0.00 | 98 | 1012.9 |
| 20260831074350 | 70 | 30 | 0.0 | 2.0 | 0.00 | 0.00 | 0.00 | 98 | 1013.1 |
| 20260831073845 | 70 | 37 | 0.0 | 1.0 | 0.00 | 0.00 | 0.00 | 98 | 1013.2 |
| 20260831073344 | 70 | 22 | 0.0 | 0.0 | 0.00 | 0.00 | 0.00 | 98 | 1013.2 |
| 20260831072840 | 70 | 32 | 0.0 | 1.0 | 0.00 | 0.00 | 0.00 | 98 | 1013.3 |
| 20260831072335 | 70 | 89 | 0.0 | 1.0 | 0.00 | 0.00 | 0.00 | 98 | 1013.1 |
| 20260831071831 | 70 | 26 | 0.0 | 1.0 | 0.00 | 0.00 | 0.00 | 98 | 1013.5 |
| 20260831071330 | 70 | 42 | 1.0 | 2.0 | 0.00 | 0.00 | 0.00 | 98 | 1013.6 |
| 20260831070825 | 70 | 15 | 0.0 | 1.0 | 0.00 | 0.00 | 0.00 | 98 | 1013.4 |
| 20260831070324 | 70 | 30 | 1.0 | 2.0 | 0.00 | 0.00 | 0.00 | 98 | 1013.2 |
| 20260831065824 | 71 | 61 | 1.0 | 2.0 | 0.00 | 0.00 | 0.00 | 98 | 1013.5 |
| 20260831065321 | 71 | 40 | 1.0 | 2.0 | 0.00 | 0.00 | 0.00 | 98 | 1013.6 |
| 20260831064817 | 70 | 50 | 1.0 | 2.0 | 0.00 | 0.00 | 0.00 | 98 | 1013.6 |
| 20260831064312 | 70 | 18 | 0.0 | 2.0 | 0.00 | 0.00 | 0.00 | 98 | 1013.4 |
| 20260831063808 | 71 | 52 | 0.0 | 2.0 | 0.00 | 0.00 | 0.00 | 98 | 1013.2 |
| 20260831063303 | 71 | 32 | 0.0 | 2.0 | 0.00 | 0.00 | 0.00 | 98 | 1013.3 |
| 20260831062803 | 71 | 11 | 0.0 | 1.0 | 0.00 | 0.00 | 0.00 | 98 | 1013.5 |
| 20260831062258 | 71 | 77 | 0.0 | 1.0 | 0.00 | 0.00 | 0.00 | 98 | 1013.3 |
| 20260831061757 | 71 | 55 | 1.0 | 1.0 | 0.00 | 0.00 | 0.00 | 98 | 1013.2 |
| 20260831061256 | 71 | 44 | 0.0 | 0.0 | 0.00 | 0.00 | 0.00 | 98 | 1013.3 |
| 20260831060753 | 71 | 32 | 0.0 | 0.0 | 0.00 | 0.00 | 0.00 | 98 | 1013.3 |
| 20260831060253 | 71 | 76 | 0.0 | 0.0 | 0.00 | 0.00 | 0.00 | 98 | 1013.1 |
| 20260831055752 | 71 | 52 | 1.0 | 2.0 | 0.00 | 0.00 | 0.00 | 98 | 1013.3 |
| 20260831055247 | 71 | 66 | 0.0 | 1.0 | 0.02 | 0.00 | 0.00 | 98 | 1013.3 |
| 20260831054742 | 71 | 56 | 0.0 | 1.0 | 0.00 | 0.00 | 0.00 | 98 | 1013.4 |
| 20260831054237 | 71 | 44 | 0.0 | 1.0 | 0.00 | 0.00 | 0.00 | 98 | 1013.2 |
| 20260831053736 | 71 | 0 | 0.0 | 0.0 | 0.00 | 0.00 | 0.00 | 98 | 1013.4 |
| 20260831053235 | 71 | 55 | 0.0 | 2.0 | 0.00 | 0.00 | 0.00 | 98 | 1013.3 |
| 20260831052730 | 71 | 50 | 0.0 | 1.0 | 0.00 | 0.00 | 0.00 | 98 | 1013.3 |
| 20260831052229 | 71 | 62 | 2.0 | 2.0 | 0.00 | 0.00 | 0.00 | 98 | 1013.4 |
| 20260831051727 | 71 | 58 | 1.0 | 1.0 | 0.00 | 0.00 | 0.00 | 98 | 1013.4 |
| 20260831051226 | 71 | 64 | 1.0 | 1.0 | 0.00 | 0.00 | 0.00 | 98 | 1013.4 |
| 20260831050721 | 71 | 44 | 0.0 | 1.0 | 0.00 | 0.00 | 0.00 | 98 | 1013.4 |
| 20260831050219 | 72 | 6 | 0.0 | 1.0 | 0.00 | 0.00 | 0.00 | 98 | 1013.4 |
| 20260831045714 | 72 | 325 | 1.0 | 1.0 | 0.00 | 0.27 | 0.27 | 98 | 1013.5 |
| 20260831045209 | 72 | 44 | 2.0 | 2.0 | 0.00 | 0.27 | 0.27 | 98 | 1013.1 |
| 20260831044709 | 72 | 42 | 1.0 | 2.0 | 0.00 | 0.27 | 0.27 | 98 | 1013.3 |
| 20260831044205 | 72 | 27 | 2.0 | 2.0 | 0.00 | 0.27 | 0.27 | 98 | 1013.5 |
| 20260831043700 | 72 | 66 | 0.0 | 1.0 | 0.00 | 0.27 | 0.27 | 98 | 1013.4 |
| 20260831043155 | 72 | 50 | 0.0 | 0.0 | 0.00 | 0.27 | 0.27 | 98 | 1013.4 |
| 20260831042654 | 72 | 117 | 0.0 | 1.0 | 0.00 | 0.27 | 0.27 | 98 | 1013.3 |
| 20260831042149 | 72 | 62 | 0.0 | 1.0 | 0.00 | 0.27 | 0.27 | 98 | 1013.7 |
| 20260831041644 | 72 | 32 | 0.0 | 0.0 | 0.00 | 0.27 | 0.27 | 98 | 1013.7 |
| 20260831041144 | 72 | 28 | 2.0 | 2.0 | 0.00 | 0.27 | 0.27 | 98 | 1013.7 |
| 20260831040640 | 72 | 3 | 2.0 | 2.0 | 0.00 | 0.27 | 0.27 | 98 | 1013.5 |
| 20260831040138 | 72 | 50 | 0.0 | 2.0 | 0.00 | 0.27 | 0.27 | 98 | 1013.4 |
| 20260831035637 | 72 | 43 | 0.0 | 1.0 | 0.00 | 0.27 | 0.27 | 98 | 1013.0 |
| 20260831035132 | 72 | 45 | 0.0 | 1.0 | 0.00 | 0.27 | 0.27 | 98 | 1012.7 |
| 20260831034630 | 72 | 62 | 0.0 | 2.0 | 0.00 | 0.27 | 0.27 | 98 | 1013.1 |
| 20260831034126 | 72 | 117 | 0.0 | 1.0 | 0.00 | 0.27 | 0.27 | 98 | 1012.9 |
| 20260831033622 | 72 | 62 | 0.0 | 1.0 | 0.00 | 0.27 | 0.27 | 98 | 1013.2 |
| 20260831033117 | 72 | 189 | 0.0 | 0.0 | 0.00 | 0.27 | 0.27 | 98 | 1013.3 |
| 20260831032616 | 72 | 137 | 0.0 | 2.0 | 0.00 | 0.27 | 0.27 | 98 | 1013.6 |
| 20260831032112 | 72 | 217 | 0.0 | 0.0 | 0.02 | 0.27 | 0.27 | 98 | 1013.8 |
| 20260831031612 | 72 | 145 | 0.0 | 0.0 | 0.02 | 0.26 | 0.26 | 98 | 1013.9 |
| 20260831031111 | 72 | 50 | 0.0 | 0.0 | 0.07 | 0.26 | 0.26 | 98 | 1014.2 |
| 20260831030611 | 72 | 113 | 0.0 | 1.0 | 0.07 | 0.26 | 0.26 | 98 | 1014.0 |
| 20260831030110 | 72 | 129 | 0.0 | 0.0 | 0.02 | 0.25 | 0.25 | 98 | 1014.0 |
| 20260831025608 | 72 | 180 | 0.0 | 0.0 | 0.00 | 0.24 | 0.24 | 98 | 1014.4 |
| 20260831025103 | 72 | 180 | 0.0 | 0.0 | 0.00 | 0.24 | 0.24 | 98 | 1014.7 |
| 20260831024600 | 72 | 200 | 0.0 | 0.0 | 0.00 | 0.24 | 0.24 | 98 | 1014.8 |
| 20260831024058 | 72 | 117 | 0.0 | 0.0 | 0.00 | 0.24 | 0.24 | 98 | 1014.7 |
| 20260831023556 | 72 | 62 | 0.0 | 0.0 | 0.00 | 0.24 | 0.24 | 98 | 1014.8 |
| 20260831023051 | 72 | 135 | 0.0 | 0.0 | 0.00 | 0.24 | 0.24 | 98 | 1014.6 |
| 20260831022551 | 71 | 44 | 0.0 | 0.0 | 0.00 | 0.24 | 0.24 | 98 | 1014.7 |
| 20260831022046 | 71 | 56 | 0.0 | 1.0 | 0.00 | 0.24 | 0.24 | 98 | 1014.7 |
| 20260831021544 | 72 | 62 | 0.0 | 0.0 | 0.02 | 0.24 | 0.24 | 98 | 1014.6 |
| 20260831021041 | 72 | 62 | 0.0 | 0.0 | 0.02 | 0.24 | 0.24 | 98 | 1014.5 |
| 20260831020536 | 72 | 195 | 0.0 | 0.0 | 0.00 | 0.24 | 0.24 | 98 | 1014.5 |
| 20260831020031 | 72 | 195 | 0.0 | 0.0 | 0.00 | 0.24 | 0.24 | 98 | 1014.4 |
| 20260831015526 | 71 | 186 | 0.0 | 0.0 | 0.00 | 0.24 | 0.24 | 98 | 1014.4 |
| 20260831015021 | 72 | 49 | 0.0 | 0.0 | 0.00 | 0.24 | 0.24 | 98 | 1014.4 |
| 20260831014516 | 72 | 49 | 0.0 | 0.0 | 0.00 | 0.24 | 0.24 | 98 | 1014.9 |
| 20260831014012 | 71 | 142 | 0.0 | 0.0 | 0.00 | 0.24 | 0.24 | 98 | 1014.5 |
| 20260831013508 | 71 | 142 | 0.0 | 0.0 | 0.00 | 0.24 | 0.24 | 97 | 1014.7 |
| 20260831013008 | 71 | 50 | 0.0 | 0.0 | 0.00 | 0.24 | 0.24 | 97 | 1014.7 |
| 20260831012502 | 71 | 72 | 0.0 | 1.0 | 0.00 | 0.24 | 0.24 | 97 | 1014.5 |
| 20260831012002 | 71 | 47 | 0.0 | 0.0 | 0.00 | 0.24 | 0.24 | 97 | 1014.5 |
| 20260831011457 | 71 | 37 | 0.0 | 0.0 | 0.00 | 0.24 | 0.24 | 97 | 1014.4 |
| 20260831010953 | 71 | 157 | 0.0 | 0.0 | 0.00 | 0.24 | 0.24 | 97 | 1014.3 |
| 20260831010453 | 71 | 62 | 0.0 | 1.0 | 0.00 | 0.24 | 0.24 | 97 | 1014.3 |
| 20260831005948 | 71 | 27 | 1.0 | 1.0 | 0.00 | 0.24 | 0.24 | 97 | 1014.1 |
| 20260831005444 | 71 | 46 | 1.0 | 1.0 | 0.00 | 0.24 | 0.24 | 97 | 1014.4 |
| 20260831004943 | 71 | 50 | 0.0 | 1.0 | 0.00 | 0.24 | 0.24 | 97 | 1014.3 |
| 20260831004440 | 72 | 44 | 0.0 | 0.0 | 0.02 | 0.24 | 0.24 | 97 | 1014.2 |
| 20260831003935 | 72 | 66 | 0.0 | 0.0 | 0.00 | 0.24 | 0.24 | 97 | 1014.2 |
| 20260831003431 | 72 | 29 | 0.0 | 0.0 | 0.00 | 0.24 | 0.24 | 96 | 1014.1 |
| 20260831002931 | 72 | 37 | 0.0 | 1.0 | 0.00 | 0.24 | 0.24 | 96 | 1013.9 |
| 20260831002430 | 72 | 62 | 0.0 | 0.0 | 0.00 | 0.24 | 0.24 | 96 | 1014.4 |
| 20260831001926 | 72 | 62 | 0.0 | 1.0 | 0.00 | 0.24 | 0.24 | 96 | 1014.1 |
| 20260831001421 | 72 | 117 | 0.0 | 1.0 | 0.00 | 0.24 | 0.24 | 96 | 1014.1 |
| 20260831000918 | 72 | 202 | 0.0 | 1.0 | 0.00 | 0.24 | 0.24 | 96 | 1013.8 |
| 20260831000413 | 72 | 183 | 0.0 | 1.0 | 0.00 | 0.24 | 0.24 | 96 | 1013.7 |
| 20260830235911 | 72 | 186 | 0.0 | 1.0 | 0.00 | 0.24 | 0.24 | 96 | 1013.9 |
| 20260830235406 | 72 | 142 | 0.0 | 1.0 | 0.02 | 0.24 | 0.24 | 96 | 1014.0 |
| 20260830234902 | 72 | 322 | 0.0 | 0.0 | 0.05 | 0.24 | 0.24 | 96 | 1013.9 |
| 20260830234357 | 72 | 50 | 0.0 | 1.0 | 0.09 | 0.23 | 0.23 | 95 | 1014.0 |
| 20260830233853 | 72 | 126 | 0.0 | 1.0 | 0.07 | 0.22 | 0.22 | 95 | 1013.8 |
| 20260830233348 | 72 | 89 | 0.0 | 1.0 | 0.05 | 0.22 | 0.22 | 95 | 1013.9 |
| 20260830232844 | 72 | 124 | 0.0 | 2.0 | 0.05 | 0.21 | 0.21 | 94 | 1014.1 |
| 20260830232339 | 72 | 117 | 0.0 | 2.0 | 0.02 | 0.20 | 0.20 | 94 | 1014.0 |
| 20260830231836 | 72 | 161 | 1.0 | 2.0 | 0.02 | 0.20 | 0.20 | 94 | 1014.0 |